Regional Weather Roundup
Issued by NWS

Home | Current Version | Previous Version | Text Only | Print | Product List | Glossary On
Versions: 1 2 3 4 5 6 7 8 9 10 11 12 13 14 15 16 17 18 19 20 21 22 23 24 25 26 27 28 29 30 31 32 33 34 35 36 37 38 39 40 41 42 43 44 45 46 47 48 49 50
000
ASUS43 KDMX 011408
RWRIA

WEATHER ROUNDUP FOR IOWA
NATIONAL WEATHER SERVICE DES MOINES IA
900 AM CDT SAT OCT 01 2016

NOTE: "FAIR" INDICATES FEW OR NO CLOUDS BELOW 12,000 FEET WITH NO
SIGNIFICANT WEATHER AND/OR OBSTRUCTIONS TO VISIBILITY.

* - THESE STATIONS ARE NOT NWS STATIONS...THUS NOT UNDER NWS
QUALITY CONTROL.  THEY ALSO DO NOT REPORT WEATHER SUCH
AS PRECIPITATION OR FOG.

IAZ001>003-012>014-020>022-031>034-043>046-011500-
   NORTHWEST IOWA

CITY           SKY/WX    TMP DP  RH WIND       PRES   REMARKS
CARROLL *      CLOUDY    59  57  94 NE7       30.14S
CHEROKEE *     CLOUDY    58  57  96 CALM      30.15S
DENISON *      CLOUDY    59  55  88 CALM      30.13S
LE MARS *      CLOUDY    59  55  88 CALM      30.16S
SHELDON *      CLOUDY    59  57  94 CALM      30.14S
SIOUX CITY     CLOUDY    59  56  89 CALM      30.15S
SPENCER        CLOUDY    60  57  89 N3        30.16S
STORM LAKE *   CLOUDY    59  55  88 NE3       30.15S
$$

IAZ055>058-069>071-079>083-090>094-011500-
   SOUTHWEST IOWA

CITY           SKY/WX    TMP DP  RH WIND       PRES   REMARKS
ATLANTIC *     CLOUDY    59  57  94 N3        30.14S
AUDUBON *      CLOUDY    57  55  94 CALM      30.15S
CLARINDA *       N/A     61  57  88 MISG      30.14F
COUNCIL BLFS * CLOUDY    59  55  88 N6        30.14F FOG
CRESTON *      CLOUDY    59  57  94 N8        30.14S
HARLAN  *      CLOUDY    59  57  94 N3        30.17S
LAMONI         CLOUDY    59  58  96 N7        30.12S
RED OAK *      CLOUDY    59  57  94 NW5       30.13F FOG
SHENANDOAH *   CLOUDY    59  55  88 CALM      30.14S
$$

IAZ047>049-059>061-072>074-084-011500-
   CENTRAL IOWA

CITY           SKY/WX    TMP DP  RH WIND       PRES   REMARKS
AMES           CLOUDY    59  59 100 N8        30.12S
ANKENY *         N/A    N/A N/A N/A MISG        N/A
BOONE *        CLOUDY    59  57  94 N6G12     30.12F
CHARITON *       N/A     59  57  94 N5        30.12S FOG
DES MOINES     CLOUDY    61  58  90 N6        30.12S
GRINNELL*      CLOUDY    59  56  90 N6        30.11F
KNOXVILLE *    PTSUNNY   59  57  94 N5        30.10S FOG
MARSHALLTOWN   CLOUDY    59  58  96 N8        30.11F
NEWTON *       CLOUDY    59  57  94 N6        30.10F
PELLA *        CLOUDY    59  58  96 N3        30.12S FOG
PERRY *        CLOUDY    59  59  99 N3        30.13F FOG
$$

IAZ004>006-015-016-023>025-035-036-011500-
   NORTH CENTRAL IOWA

CITY           SKY/WX    TMP DP  RH WIND       PRES   REMARKS
ALGONA *       CLOUDY    61  57  88 CALM      30.15S
CLARION *      CLOUDY    61  59  94 NE6       30.14S
ESTHERVILLE    CLOUDY    59  56  89 N5        30.15S
FORT DODGE *   CLOUDY    59  54  82 NE3       30.15S
MASON CITY     CLOUDY    60  56  86 NE6       30.15S
FOREST CITY *  CLOUDY    59  55  88 N5        30.14S
WEBSTER CITY * CLOUDY    59  57  94 N5        30.12S
IOWA FALLS *   CLOUDY    59  57  95 N6        30.14S FOG
$$

IAZ007>011-017>019-026>030-037>042-050>054-066-011500-
   NORTHEAST IOWA

CITY           SKY/WX    TMP DP  RH WIND       PRES   REMARKS
CEDAR RAPIDS   LGT RAIN  59  59 100 N7        30.08F FOG
CHARLES CITY * CLOUDY    59  59 100 N6        30.13F FOG
CLINTON *      CLOUDY    61  59  93 NE8       30.06S
DECORAH *      CLOUDY    57  57 100 N6        30.11S
DUBUQUE        CLOUDY    59  58  96 N9        30.08S
MONTICELLO *   CLOUDY    59  59 100 N7        30.08S
OELWEIN *      CLOUDY    59  57  94 N8        30.11F
WATERLOO       CLOUDY    59  57  93 N8        30.10F FOG
$$

IAZ064-065-067-068-078-011500-
   EAST CENTRAL IOWA

CITY           SKY/WX    TMP DP  RH WIND       PRES   REMARKS
DAVENPORT      CLOUDY    60  58  92 N7        30.06S
IOWA CITY      CLOUDY    60  58  92 N8        30.09F FOG
MT. PLEASANT * CLOUDY    62  62 100 NW13G18   30.08F FOG
MUSCATINE *    CLOUDY    61  59  94 NW7       30.07S FOG
QUAD CITIES    CLOUDY    62  58  86 N5        30.05S
$$

IAZ062-063-075>077-085>089-095>099-011500-
   SOUTHEAST IOWA

CITY           SKY/WX    TMP DP  RH WIND       PRES   REMARKS
BURLINGTON     CLOUDY    59  59 100 NW8       30.06F FOG
FAIRFIELD *    CLOUDY    61  57  88 N7        30.09S
FORT MADISON *   N/A     61  59  94 NW6       30.08S
KEOKUK *       CLOUDY    61  59  94 NW7       30.07S
OSKALOOSA *    CLOUDY    59  58  96 N7        30.10F FOG
OTTUMWA        CLOUDY    61  58  90 NW8       30.09F
WASHINGTON *     N/A    N/A N/A N/A MISG        N/A
$$

ABBREVIATIONS USED IN REMARKS
   TC - TEMPERATURES IN CELSIUS
  WCI - WIND CHILL INDEX
   HX - HEAT INDEX
  VSB - VISIBILITY
$$





USA.gov is the U.S. government's official web portal to all federal, state and local government web resources and services.